Weather History for MYGF - June, 2014

Change the Weather History Date:

Monday, June 9, 2014

  Actual Average Record
Temperature  
Mean Temperature 82 °F -  
Max Temperature 89 °F 86 °F 89 °F (2001)
Min Temperature 75 °F 76 °F 69 °F (2007)
Cooling Degree Days 17    
Growing Degree Days 32 (Base 50)    
Moisture  
Dew Point 75 °F    
Average Humidity 75    
Maximum Humidity 94    
Minimum Humidity 59    
Precipitation  
Precipitation 1.10 in - - ()
Sea Level Pressure  
Sea Level Pressure 29.96 in    
Wind  
Wind Speed 4 mph ()    
Max Wind Speed 18 mph    
Max Gust Speed -    
Visibility 7.2 miles    
Events Rain , Thunderstorm    
Averages and records for this station are not official NWS values.
T = Trace of Precipitation, MM = Missing Value Source: Averaged Metar Reports

Daily Weather History Graph

Daily Weather History Graph

Search for Another Location

Airport or City:

Trip Planner

Search our weather history database for the weather conditions in past years. The results will help you decide how hot, cold, wet, or windy it might be!

Date:

Astronomy

Jun. 09, 2014 Rise Set
Actual Time 6:21 AM EDT 8:07 PM EDT
Civil Twilight 5:54 AM EDT 8:33 PM EDT
Nautical Twilight 5:23 AM EDT 9:04 PM EDT
Astronomical Twilight 4:50 AM EDT 9:38 PM EDT
Moon 4:43 PM EDT (6/9) 3:27 AM EDT (6/9)
Length of Visible Light 14h 38m
Length of Day
13h 46m
Waxing Gibbous, 85% of the Moon is Illuminated
Jun 9
Waxing Gibbous
Jun 13
Full
Jun 19
Last Quarter
Jun 27
New
Jul 5
First Quarter

Hourly Weather History & Observations

Time (EDT) Temp. Heat Index Dew Point Humidity Pressure Visibility Wind Dir Wind Speed Gust Speed Precip Events Conditions
7:00 AM 77.0 °F - 75.2 °F 94% 29.92 in 6.2 mi Calm Calm - N/A   Partly Cloudy
8:00 AM 81 °F - 76 °F 82% 29.93 in 9 mi SE 3.5 mph - -   Haze
8:00 AM 80.6 °F 87.1 °F 77.0 °F 89% 29.93 in 6.2 mi SE 3.5 mph - N/A   Partly Cloudy
9:00 AM 84.2 °F 94.1 °F 77.0 °F 79% 29.96 in 6.2 mi South 5.8 mph - N/A   Scattered Clouds
10:00 AM - - - N/A% 29.97 in 6.2 mi South 4.6 mph - N/A   Scattered Clouds
11:00 AM 86 °F - 76 °F 67% 29.98 in 12 mi South 6.9 mph - -   Partly Cloudy
11:00 AM 86.0 °F 96.9 °F 77.0 °F 74% 29.98 in 6.2 mi South 6.9 mph - N/A   Scattered Clouds
12:00 PM 86.0 °F 96.9 °F 77.0 °F 74% 29.98 in 6.2 mi SW 9.2 mph - N/A   Mostly Cloudy
1:00 PM 87.8 °F 97.6 °F 75.2 °F 66% 29.98 in 6.2 mi SSW 8.1 mph - N/A   Scattered Clouds
2:00 PM 87 °F - 76 °F 64% 29.98 in 12 mi South 4.6 mph - -  
2:00 PM 86.0 °F 96.9 °F 77.0 °F 74% 29.98 in 6.2 mi South 4.6 mph - N/A   Mostly Cloudy
2:05 PM 86.0 °F 93.4 °F 73.4 °F 66% 29.98 in 6.2 mi East 4.6 mph - N/A Thunderstorm Thunderstorm
2:34 PM 75.2 °F - 71.6 °F 89% 29.98 in 1.5 mi East 18.4 mph - N/A Rain , Thunderstorm Heavy Thunderstorms and Rain
3:00 PM 75.2 °F - 69.8 °F 83% 29.98 in - SE 11.5 mph - N/A Rain , Thunderstorm Thunderstorms and Rain
3:20 PM 75.2 °F - 73.4 °F 94% 29.95 in 6.2 mi ESE 3.5 mph - N/A   Scattered Clouds
4:00 PM 82.4 °F 89.5 °F 75.2 °F 79% 29.95 in 6.2 mi East 3.5 mph - N/A   Partly Cloudy
5:00 PM 86 °F - 74 °F 59% 29.94 in 12 mi SSE 5.8 mph - -   Partly Cloudy
5:00 PM 86.0 °F 93.4 °F 73.4 °F 66% 29.94 in 6.2 mi SSE 5.8 mph - N/A   Partly Cloudy
6:00 PM 86.0 °F 95.1 °F 75.2 °F 70% 29.94 in 6.2 mi SE 5.8 mph - N/A   Partly Cloudy
7:00 PM 86.0 °F 93.4 °F 73.4 °F 66% 29.95 in 6.2 mi SE 3.5 mph - N/A   Partly Cloudy
8:00 PM 83 °F - 75 °F 71% 29.96 in 12 mi South 3.5 mph - -   Partly Cloudy
8:00 PM 84.2 °F 92.3 °F 75.2 °F 74% 29.96 in 6.2 mi South 3.5 mph - N/A   Partly Cloudy